CW2414 Weather Reports


Display with metric or nautical units.
time (UTC)temp
F
wind
direction
speed
MPH
gust
MPH
rain 1hr
in
rain 24hr
in
rain mn
in
humidity
%
barometer
mb
20260504221508 57 259 5.0 11.0 0.00 0.03 0.00 65 1004.9
20260504220005 57 5 2.0 9.0 0.00 0.03 0.00 65 1004.6
20260504214507 57 269 4.0 16.0 0.00 0.06 0.00 63 1004.5
20260504213004 58 243 5.0 13.0 0.00 0.06 0.00 62 1004.3
20260504211506 58 295 4.0 11.0 0.00 0.06 0.00 62 1004.2
20260504210003 58 264 1.0 11.0 0.00 0.06 0.00 62 1004.2
20260504204502 58 280 5.0 11.0 0.00 0.06 0.00 61 1003.9
20260504203002 58 258 7.0 15.0 0.00 0.06 0.00 61 1004.1
20260504201501 58 238 6.0 16.0 0.00 0.06 0.00 60 1004.2
20260504200002 58 211 9.0 15.0 0.00 0.06 0.00 62 1004.0
20260504194606 57 258 6.0 12.0 0.00 0.09 0.00 65 1004.0
20260504193109 56 209 6.0 16.0 0.00 0.09 0.00 68 1004.0
20260504191613 55 213 6.0 14.0 0.00 0.09 0.00 71 1004.2
20260504184557 53 285 5.0 12.0 0.00 0.18 0.00 75 1004.7
20260504183057 53 215 3.0 10.0 0.00 0.18 0.00 75 1004.6
20260504181559 54 236 5.0 18.0 0.00 0.18 0.00 66 1004.6
20260504180055 56 242 9.0 18.0 0.00 0.18 0.00 58 1004.3
20260504174554 57 230 5.0 16.0 0.00 0.31 0.00 52 1003.6
20260504173053 59 202 7.0 14.0 0.00 0.31 0.00 44 1003.2
20260504171554 60 207 8.0 14.0 0.00 0.31 0.00 41 1003.1
20260504120105 44 238 7.0 12.0 0.00 0.55 0.00 67 1006.4
20260504081524 38 241 2.0 12.0 0.00 0.76 0.00 86 1003.6
20260504044602 42 330 3.0 12.0 0.00 0.86 0.00 92 1001.9
20260504043052 42 301 4.0 13.0 0.00 0.86 0.00 93 1001.8
20260504041545 42 313 4.0 11.0 0.00 0.86 0.00 93 1001.7
20260504040045 43 247 2.0 11.0 0.00 0.86 0.00 93 1001.5
20260504034543 43 288 2.0 13.0 0.00 0.86 0.86 93 1001.5
20260504033041 43 286 6.0 13.0 0.00 0.86 0.86 94 1001.3
20260504031542 42 252 3.0 9.0 0.00 0.86 0.86 94 1001.1
20260504030040 42 280 4.0 9.0 0.00 0.86 0.86 94 1000.9
20260504024539 42 327 4.0 10.0 0.00 0.86 0.86 94 1000.9
20260504023038 42 251 2.0 10.0 0.00 0.86 0.86 94 1000.7
20260504021539 42 289 6.0 12.0 0.01 0.86 0.86 94 1000.6
20260504020037 42 320 4.0 14.0 0.01 0.86 0.86 94 1000.8
20260504014540 42 324 4.0 14.0 0.01 0.86 0.86 94 1000.7
20260504013047 42 273 5.0 12.0 0.01 0.86 0.86 94 1000.6
20260504011537 42 343 1.0 10.0 0.00 0.85 0.85 94 1000.5
20260504010036 42 319 4.0 12.0 0.00 0.85 0.85 95 1000.1
20260504004533 42 289 3.0 9.0 0.00 0.85 0.85 95 1000.0
20260504003035 42 286 3.0 11.0 0.00 0.85 0.85 95 999.9
20260504001537 42 330 4.0 15.0 0.00 0.85 0.85 95 999.7
20260504000030 42 279 3.0 13.0 0.00 0.85 0.85 95 999.5
20260503234529 42 269 3.0 13.0 0.00 0.85 0.85 95 999.5
20260503233028 42 215 1.0 9.0 0.01 0.85 0.85 95 999.3
20260503231526 42 346 4.0 9.0 0.01 0.85 0.85 95 999.2
20260503230024 42 294 4.0 14.0 0.02 0.85 0.85 95 999.1
20260503224522 42 317 3.0 13.0 0.03 0.85 0.85 95 999.1
20260503223019 42 34 4.0 9.0 0.02 0.84 0.84 95 999.0